TimeCDT,TemperatureF,Dew PointF,Humidity,Sea Level PressureIn,VisibilityMPH,Wind Direction,Wind SpeedMPH,Gust SpeedMPH,PrecipitationIn,Events,Conditions,WindDirDegrees,DateUTC
12:15 AM,57.2,39.2,51,30.19,10.0,SSE,9.2,-,N/A,,Mostly Cloudy,150,2013-04-22 05:15:00
12:35 AM,57.2,39.2,51,30.19,10.0,SSE,10.4,-,N/A,,Overcast,150,2013-04-22 05:35:00
12:55 AM,57.2,39.2,51,30.19,10.0,SSE,10.4,-,N/A,,Overcast,150,2013-04-22 05:55:00
1:15 AM,57.2,39.2,51,30.18,10.0,SSE,10.4,-,N/A,,Overcast,150,2013-04-22 06:15:00
1:35 AM,57.2,39.2,51,30.18,10.0,SSE,12.7,20.7,N/A,,Overcast,150,2013-04-22 06:35:00
1:55 AM,55.4,39.2,54,30.18,10.0,SSE,10.4,17.3,N/A,,Mostly Cloudy,150,2013-04-22 06:55:00
2:55 AM,53.6,39.2,58,30.16,10.0,SSE,8.1,-,N/A,,Clear,160,2013-04-22 07:55:00
3:15 AM,53.6,39.2,58,30.16,10.0,SSE,9.2,-,N/A,,Clear,160,2013-04-22 08:15:00
3:35 AM,53.6,39.2,58,30.15,10.0,SSE,9.2,-,N/A,,Clear,160,2013-04-22 08:35:00
3:55 AM,53.6,39.2,58,30.15,10.0,SSE,9.2,-,N/A,,Clear,160,2013-04-22 08:55:00
4:35 AM,51.8,39.2,62,30.15,10.0,South,6.9,-,N/A,,Clear,170,2013-04-22 09:35:00
4:55 AM,51.8,39.2,62,30.15,10.0,SSE,4.6,-,N/A,,Partly Cloudy,160,2013-04-22 09:55:00
5:15 AM,51.8,39.2,62,30.15,10.0,Calm,Calm,-,N/A,,Mostly Cloudy,0,2013-04-22 10:15:00
5:35 AM,51.8,39.2,62,30.15,10.0,SSE,4.6,-,N/A,,Mostly Cloudy,150,2013-04-22 10:35:00
5:55 AM,51.8,39.2,62,30.14,10.0,Calm,Calm,-,N/A,,Partly Cloudy,0,2013-04-22 10:55:00
6:15 AM,50.0,39.2,66,30.14,10.0,Calm,Calm,-,N/A,,Clear,0,2013-04-22 11:15:00
6:35 AM,50.0,39.2,66,30.15,10.0,Calm,Calm,-,N/A,,Clear,0,2013-04-22 11:35:00
6:55 AM,48.2,39.2,71,30.15,10.0,SE,4.6,-,N/A,,Clear,140,2013-04-22 11:55:00
7:15 AM,48.2,39.2,71,30.15,10.0,Calm,Calm,-,N/A,,Clear,0,2013-04-22 12:15:00
7:55 AM,53.6,39.2,58,30.16,10.0,SSE,5.8,-,N/A,,Clear,160,2013-04-22 12:55:00
8:15 AM,53.6,39.2,58,30.15,10.0,SSE,8.1,-,N/A,,Clear,160,2013-04-22 13:15:00
8:35 AM,55.4,39.2,54,30.15,10.0,South,11.5,-,N/A,,Clear,170,2013-04-22 13:35:00
8:55 AM,55.4,39.2,54,30.14,10.0,SSE,10.4,-,N/A,,Clear,160,2013-04-22 13:55:00
9:15 AM,57.2,39.2,51,30.14,10.0,South,10.4,16.1,N/A,,Clear,170,2013-04-22 14:15:00
9:35 AM,60.8,39.2,45,30.13,10.0,SSE,9.2,-,N/A,,Clear,160,2013-04-22 14:35:00
9:55 AM,62.6,41.0,45,30.13,10.0,SSE,8.1,-,N/A,,Clear,160,2013-04-22 14:55:00
10:15 AM,62.6,41.0,45,30.13,10.0,South,11.5,-,N/A,,Clear,180,2013-04-22 15:15:00
10:35 AM,64.4,42.8,45,30.12,10.0,South,12.7,-,N/A,,Clear,170,2013-04-22 15:35:00
10:55 AM,64.4,42.8,45,30.12,10.0,South,9.2,-,N/A,,Partly Cloudy,170,2013-04-22 15:55:00
11:15 AM,64.4,41.0,42,30.12,10.0,South,9.2,-,N/A,,Clear,190,2013-04-22 16:15:00
11:35 AM,64.4,42.8,45,30.11,10.0,South,9.2,-,N/A,,Clear,190,2013-04-22 16:35:00
11:55 AM,66.2,42.8,43,30.11,10.0,South,9.2,-,N/A,,Clear,170,2013-04-22 16:55:00
12:15 PM,66.2,42.8,43,30.10,10.0,South,5.8,-,N/A,,Clear,190,2013-04-22 17:15:00
12:35 PM,66.2,42.8,43,30.08,10.0,South,5.8,-,N/A,,Clear,180,2013-04-22 17:35:00
12:55 PM,66.2,42.8,43,30.07,10.0,South,10.4,-,N/A,,Partly Cloudy,190,2013-04-22 17:55:00
1:15 PM,68.0,42.8,40,30.06,10.0,South,8.1,-,N/A,,Partly Cloudy,190,2013-04-22 18:15:00
1:35 PM,69.8,42.8,38,30.05,10.0,SE,9.2,-,N/A,,Partly Cloudy,140,2013-04-22 18:35:00
1:55 PM,69.8,42.8,38,30.03,10.0,South,12.7,19.6,N/A,,Clear,190,2013-04-22 18:55:00
2:15 PM,69.8,41.0,35,30.02,10.0,South,11.5,-,N/A,,Clear,170,2013-04-22 19:15:00
2:35 PM,68.0,41.0,37,30.01,10.0,SE,13.8,17.3,N/A,,Partly Cloudy,140,2013-04-22 19:35:00
2:55 PM,68.0,39.2,35,29.99,10.0,SSE,12.7,-,N/A,,Partly Cloudy,150,2013-04-22 19:55:00
3:15 PM,66.2,39.2,37,29.98,10.0,SE,12.7,-,N/A,,Clear,140,2013-04-22 20:15:00
3:35 PM,66.2,37.4,35,29.96,10.0,SSE,11.5,-,N/A,,Clear,160,2013-04-22 20:35:00
3:55 PM,66.2,39.2,37,29.96,10.0,SE,9.2,-,N/A,,Clear,140,2013-04-22 20:55:00
4:15 PM,66.2,37.4,35,29.97,10.0,South,10.4,-,N/A,,Clear,180,2013-04-22 21:15:00
4:35 PM,66.2,39.2,37,29.97,10.0,South,8.1,-,N/A,,Clear,190,2013-04-22 21:35:00
4:55 PM,64.4,39.2,40,29.96,10.0,South,5.8,-,N/A,,Clear,170,2013-04-22 21:55:00
5:15 PM,64.4,39.2,40,29.97,10.0,Calm,Calm,-,N/A,,Partly Cloudy,0,2013-04-22 22:15:00
5:35 PM,64.4,41.0,42,29.94,10.0,Calm,Calm,-,N/A,,Scattered Clouds,0,2013-04-22 22:35:00
5:55 PM,64.4,41.0,42,29.92,10.0,ESE,6.9,-,N/A,,Scattered Clouds,110,2013-04-22 22:55:00
6:15 PM,64.4,41.0,42,29.94,10.0,Calm,Calm,-,N/A,,Scattered Clouds,0,2013-04-22 23:15:00
6:35 PM,64.4,44.6,49,29.93,10.0,SE,5.8,-,N/A,,Scattered Clouds,130,2013-04-22 23:35:00
6:55 PM,64.4,42.8,45,29.92,10.0,SSE,6.9,-,N/A,,Mostly Cloudy,150,2013-04-22 23:55:00
7:15 PM,64.4,41.0,42,29.94,10.0,Calm,Calm,-,N/A,,Overcast,0,2013-04-23 00:15:00
7:35 PM,62.6,42.8,48,29.95,10.0,Calm,Calm,-,N/A,,Overcast,0,2013-04-23 00:35:00
7:55 PM,60.8,46.4,59,29.95,10.0,Calm,Calm,-,N/A,,Overcast,0,2013-04-23 00:55:00
8:15 PM,62.6,44.6,52,29.94,10.0,Calm,Calm,-,N/A,,Mostly Cloudy,0,2013-04-23 01:15:00
8:35 PM,62.6,42.8,48,29.94,10.0,SE,4.6,-,N/A,,Mostly Cloudy,130,2013-04-23 01:35:00
8:55 PM,62.6,42.8,48,29.94,10.0,SSE,6.9,-,N/A,,Mostly Cloudy,150,2013-04-23 01:55:00
9:15 PM,62.6,42.8,48,29.93,10.0,SSE,10.4,-,N/A,,Scattered Clouds,160,2013-04-23 02:15:00
9:35 PM,62.6,42.8,48,29.94,10.0,South,5.8,-,N/A,,Partly Cloudy,180,2013-04-23 02:35:00
9:55 PM,60.8,42.8,52,29.94,10.0,SSE,5.8,-,N/A,,Scattered Clouds,150,2013-04-23 02:55:00
10:15 PM,60.8,42.8,52,29.94,10.0,SSE,6.9,-,N/A,,Scattered Clouds,150,2013-04-23 03:15:00
10:35 PM,62.6,42.8,48,29.96,10.0,SE,6.9,-,N/A,Thunderstorm,Mostly Cloudy,130,2013-04-23 03:35:00
10:55 PM,62.6,46.4,55,29.96,10.0,North,9.2,-,N/A,,Light Drizzle,10,2013-04-23 03:55:00
11:15 PM,59.0,48.2,67,29.95,7.0,East,6.9,-,N/A,Rain,Light Rain,80,2013-04-23 04:15:00
11:35 PM,59.0,46.4,63,29.97,10.0,Calm,Calm,-,N/A,,Mostly Cloudy,0,2013-04-23 04:35:00
11:55 PM,55.4,48.2,77,29.96,10.0,Calm,Calm,-,N/A,,Mostly Cloudy,0,2013-04-23 04:55:00